Wetbulb
57.74 57.70 57.71 60.03 59.92 59.69 59.76 59.73 60.05 60.24 59.93 59.65 59.36 58.87 58.85 58.33 57.37 60.33 56.22 57.78 59.45 61.01 59.68 59.07 58.77 57.96 57.95 55.35 55.80 55.14 50.18 48.23 48.33 48.52 50.02 52.07 52.10 54.66 55.42 54.60 54.99 56.58 59.68 67.21 71.32
57.55 56.96 57.09 56.87 57.23 57.20 58.71 59.05 59.30 59.88 59.87 59.28 58.97 58.46 58.26 57.51 58.58 57.11 60.00 61.63 60.67 61.79 58.20 56.76 55.40 56.32 54.94 54.01 54.29 52.14 50.04 48.73 51.14 51.41 50.53 51.78 52.37 52.84 53.37 53.89 54.32 54.70 63.84 67.19 69.07
56.69 57.27 57.26 57.33 56.62 56.72 57.16 58.71 58.62 59.72 59.74 59.32 58.58 58.41 57.87 58.17 55.99 54.40 61.13 61.39 61.34 60.50 58.59 58.10 56.45 55.34 52.52 53.87 53.24 52.31 49.01 51.22 50.99 51.61 52.51 52.10 52.20 53.33 52.17 52.41 54.92 54.42 56.09 62.44 66.01
56.28 56.91 56.99 57.04 56.77 56.90 57.61 58.17 58.43 59.45 59.78 59.30 58.73 58.53 57.81 59.07 47.96 57.11 62.38 61.46 61.58 59.40 56.94 56.32 54.88 52.49 51.36 50.40 53.10 49.36 51.51 51.73 51.94 51.94 52.29 52.01 53.83 52.27 53.15 54.27 56.31 56.48 57.18 57.72 62.83
55.48 56.17 56.61 56.61 56.12 56.26 57.48 57.96 58.13 58.85 59.47 59.30 58.72 57.97 58.69 54.48 54.47 58.85 61.50 61.83 58.25 56.89 54.41 53.99 52.95 52.19 49.83 50.39 51.00 49.84 50.59 51.26 52.17 52.13 52.70 53.21 52.02 51.80 52.90 55.29 56.71 56.86 56.64 57.01 57.75
54.90 55.18 55.91 56.00 55.77 56.07 56.08 57.67 57.58 58.02 58.80 58.92 58.40 57.09 56.73 49.79 59.94 58.97 58.68 57.64 57.06 56.10 54.25 53.63 52.28 53.35 50.84 49.99 50.10 51.15 50.99 51.49 51.97 52.23 52.22 50.69 50.99 51.42 52.91 55.09 55.28 55.68 56.26 57.16 57.50
54.35 54.71 55.38 55.62 55.52 55.50 55.89 55.49 56.99 57.41 58.63 58.36 57.91 58.01 54.82 54.30 59.69 59.33 58.51 57.54 57.75 56.68 54.03 55.21 54.99 52.63 52.25 49.42 52.23 50.95 48.41 49.88 50.70 51.11 50.27 51.67 48.93 49.56 53.64 54.53 54.12 56.09 58.24 58.47 59.66
54.00 54.13 54.58 55.14 55.02 55.16 55.43 54.80 56.64 57.48 58.38 58.02 57.54 57.53 52.43 59.34 61.94 59.53 60.54 58.70 58.55 57.90 56.32 56.58 56.32 53.64 51.92 52.84 50.60 48.38 48.24 45.51 49.05 50.18 50.71 50.90 45.84 50.95 52.58 52.89 53.56 56.14 57.91 58.96 60.37
53.84 53.82 54.00 54.49 54.38 54.44 54.26 54.16 56.42 57.80 58.01 57.03 55.00 54.97 51.11 58.29 55.70 59.45 60.19 56.30 56.72 56.65 56.70 55.44 55.03 51.94 51.67 47.82 46.14 47.34 43.31 45.06 46.26 48.89 49.31 49.78 46.83 49.90 53.57 52.93 52.57 55.58 56.73 57.38 58.52
53.73 53.57 53.61 53.73 53.89 53.92 53.61 53.97 56.81 57.29 57.65 55.71 53.73 49.92 54.52 52.20 56.93 57.19 59.52 58.19 54.94 54.43 52.98 52.67 51.94 48.86 48.82 46.96 41.42 44.02 43.96 45.41 45.26 48.29 48.68 47.81 47.80 50.40 51.83 51.28 51.48 54.25 55.94 56.52 56.36
52.93 53.61 53.59 53.32 53.85 53.51 53.03 52.16 51.72 50.47 51.83 49.47 50.05 49.55 51.54 56.42 56.70 55.21 57.34 55.72 55.19 52.46 47.80 50.76 46.75 44.33 46.80 48.11 47.57 45.47 44.78 44.22 46.74 47.83 46.51 46.51 46.90 48.49 50.22 50.81 51.10 52.37 53.14 53.88 54.68
51.65 53.38 53.42 53.20 53.63 53.33 53.56 47.56 52.66 53.25 46.09 51.76 53.00 52.78 54.45 54.36 50.75 53.49 56.66 51.54 50.85 46.89 49.35 46.98 43.90 48.11 48.41 47.83 46.46 45.27 43.73 44.13 46.59 47.67 46.27 46.87 46.37 48.78 49.45 49.87 51.58 52.02 52.89 54.09 55.42
51.09 52.74 53.21 52.88 52.93 52.86 51.15 49.90 55.76 55.58 44.60 48.49 51.87 50.94 51.88 53.52 49.46 51.53 53.58 52.12 49.03 47.09 47.33 45.17 46.54 48.82 46.88 45.62 44.10 44.70 43.96 44.40 43.97 46.36 47.07 46.31 44.93 47.15 49.07 51.76 53.23 53.78 54.76 55.66 56.55
50.75 52.24 52.43 52.14 48.80 51.20 48.93 53.17 54.13 54.87 39.62 41.35 45.84 50.08 51.74 51.97 47.56 54.58 54.68 51.64 48.92 46.40 47.57 46.55 49.29 46.23 45.91 44.63 45.60 42.68 46.51 45.09 43.90 43.08 40.81 46.76 39.58 45.40 47.91 50.31 52.82 55.04 56.81 58.10 59.10
50.57 52.04 52.00 52.12 49.52 47.82 50.78 54.02 54.39 51.16 27.18 44.54 47.06 55.04 52.35 48.04 48.94 49.72 54.93 51.69 46.73 46.03 47.58 44.61 45.18 45.65 43.99 45.02 46.77 44.25 46.23 45.34 45.30 44.38 43.94 44.21 41.80 44.20 47.56 47.46 50.68 53.92 55.83 57.87 59.80
50.50 52.06 52.10 51.18 53.01 52.65 54.09 53.81 51.78 34.02 27.67 41.82 47.84 46.43 45.95 47.45 47.67 50.05 50.16 52.80 51.43 47.08 47.26 46.60 48.98 47.58 46.97 47.84 47.35 48.08 46.65 46.42 46.69 45.47 39.17 43.44 43.04 42.83 45.48 48.60 50.58 53.08 55.18 57.96 59.51
50.64 52.19 51.95 54.13 46.32 54.05 54.42 49.72 32.69 26.95 40.17 38.49 42.15 45.60 44.85 43.45 44.88 45.87 44.63 45.09 43.60 39.83 40.56 44.31 44.99 46.84 47.87 45.06 47.54 47.16 45.16 39.21 37.93 38.30 37.56 44.27 42.99 44.74 48.77 50.74 52.11 53.50 55.32 58.14 59.52
50.83 51.53 51.79 53.38 54.44 53.46 50.03 38.17 25.21 33.77 35.61 44.45 44.44 44.48 41.32 44.13 43.93 44.05 43.44 41.59 46.25 45.27 42.52 39.53 37.74 44.83 47.16 46.03 44.00 44.55 45.36 39.60 33.83 36.51 39.87 44.75 40.78 44.67 50.58 52.47 53.49 54.87 56.30 57.73 58.95
51.17 51.23 49.52 51.40 52.76 51.65 42.11 29.16 28.65 36.79 39.79 39.81 43.36 40.57 40.61 43.07 43.60 42.91 42.25 43.38 45.24 46.64 40.86 39.89 39.81 46.96 47.54 47.60 47.99 44.62 42.93 46.76 41.66 42.56 38.92 41.89 45.48 49.41 51.72 51.82 53.77 54.20 55.58 56.92 58.13
49.18 46.87 46.24 51.84 51.99 46.49 35.57 30.33 34.07 40.54 41.53 41.48 37.99 42.14 38.34 40.52 40.34 41.90 41.60 45.03 44.36 47.35 48.68 44.50 38.56 44.68 46.21 48.19 48.08 46.42 48.04 40.39 42.35 33.78 33.25 39.37 41.57 43.07 47.68 49.54 51.75 53.45 55.19 57.12 58.51
46.49 40.97 46.78 51.41 49.32 40.57 30.38 32.44 36.05 40.27 41.95 38.66 39.79 40.13 41.52 40.49 41.09 41.26 41.23 44.33 46.91 46.20 48.14 45.56 42.60 41.65 45.64 43.93 43.06 44.14 43.63 44.10 44.33 41.88 36.99 36.70 40.91 49.78 49.63 51.26 52.07 53.95 55.84 57.79 58.86
43.59 32.93 47.05 49.53 36.01 34.00 31.66 35.84 39.14 39.64 40.78 39.64 40.84 42.23 41.74 42.28 40.47 41.08 41.27 43.98 48.18 48.13 43.52 46.83 43.28 38.30 40.98 46.68 47.99 46.54 44.10 44.95 40.24 39.33 42.15 41.66 42.78 52.41 53.54 54.06 54.77 54.63 55.55 57.89 59.14
36.37 34.20 45.08 46.02 30.68 31.64 36.33 36.25 38.29 37.85 38.00 37.04 37.23 41.91 44.70 42.50 38.95 41.93 42.92 47.26 47.68 46.01 44.27 45.98 41.03 35.87 37.85 44.03 47.31 44.19 45.30 45.74 45.90 45.26 41.66 39.72 41.33 51.94 52.75 53.03 54.38 54.59 56.29 57.31 58.72
34.87 31.84 36.55 40.26 37.65 35.56 35.00 34.52 34.48 39.41 38.40 39.54 38.23 41.84 41.71 41.55 43.96 41.25 42.07 45.28 47.09 46.41 46.93 46.65 41.79 39.15 36.05 39.94 44.07 41.36 42.95 45.17 44.66 40.66 41.46 42.45 44.28 48.48 50.36 51.25 52.95 54.68 56.16 57.41 57.98
34.00 33.46 37.51 30.08 31.45 36.79 37.33 36.41 34.29 33.60 38.90 40.52 38.02 37.44 37.95 38.78 41.46 41.33 43.44 44.45 45.50 46.52 46.61 45.49 38.51 41.39 42.56 43.19 44.03 43.99 43.53 43.69 42.58 44.51 41.84 43.90 44.07 47.20 49.71 51.90 53.06 54.06 55.39 56.06 55.97
33.65 33.26 37.49 38.13 37.97 36.18 36.17 33.74 34.43 35.82 37.41 36.22 34.93 38.85 39.41 39.29 42.96 40.67 43.74 43.94 42.66 45.60 45.31 47.39 40.80 41.86 39.43 42.16 42.87 41.54 44.39 44.67 44.54 45.01 44.60 45.39 45.06 50.40 51.98 53.40 53.00 53.57 54.47 54.53 54.47
39.77 43.90 41.50 36.04 36.11 33.86 34.06 35.05 35.29 38.36 39.83 40.88 39.92 40.46 40.47 43.12 48.03 49.15 49.90 49.54 48.61 44.64 44.17 43.84 42.84 40.24 35.06 40.63 40.47 37.58 43.18 44.94 45.90 46.81 46.31 43.39 48.56 51.08 50.74 51.50 52.11 53.82 54.21 54.10 54.74
MSLP
1018.25 1018.28 1018.12 1017.70 1017.44 1017.78 1017.93 1017.93 1018.04 1018.09 1018.03 1018.00 1017.90 1017.68 1017.34 1016.84 1015.76 1014.23 1013.45 1013.44 1013.31 1013.39 1013.35 1012.15 1011.64 1011.22 1010.90 1010.19 1010.08 1009.55 1007.62 1005.92 1005.91 1006.38 1006.69 1007.57 1007.22 1007.64 1007.66 1006.97 1007.12 1007.26 1007.20 1007.97 1008.71
1018.05 1018.01 1017.95 1017.90 1017.53 1017.33 1017.55 1017.73 1017.73 1017.83 1017.93 1017.80 1017.75 1017.63 1017.26 1016.78 1015.47 1013.74 1013.40 1013.48 1013.41 1013.38 1012.57 1011.53 1010.85 1010.70 1009.90 1009.72 1009.63 1008.83 1007.53 1006.51 1007.34 1007.45 1007.44 1007.62 1007.69 1007.88 1007.35 1006.86 1006.82 1007.18 1007.81 1008.31 1008.65
1017.81 1017.73 1017.71 1017.73 1017.53 1017.34 1017.16 1017.27 1017.49 1017.61 1017.73 1017.71 1017.59 1017.55 1017.18 1016.50 1014.62 1012.67 1013.41 1013.41 1013.37 1013.09 1012.26 1011.67 1011.10 1010.46 1009.64 1009.48 1009.23 1008.82 1007.75 1007.84 1008.04 1008.44 1008.30 1007.76 1007.72 1008.09 1007.54 1006.73 1006.41 1006.66 1007.01 1007.55 1008.08
1017.44 1017.37 1017.40 1017.50 1017.45 1017.34 1016.98 1016.91 1017.09 1017.28 1017.50 1017.62 1017.49 1017.41 1017.02 1015.95 1013.64 1013.03 1013.58 1013.45 1013.26 1012.69 1012.01 1011.44 1010.81 1010.09 1009.46 1009.01 1009.09 1008.91 1008.71 1008.76 1008.48 1008.92 1008.59 1008.00 1007.76 1007.80 1007.55 1006.69 1006.78 1006.85 1007.03 1007.09 1007.43
1017.00 1017.05 1017.05 1017.19 1017.24 1017.10 1016.84 1016.66 1016.55 1016.95 1017.23 1017.45 1017.49 1017.29 1016.50 1015.10 1013.13 1013.10 1013.43 1013.03 1012.64 1012.32 1011.53 1011.15 1010.56 1009.92 1009.28 1009.17 1009.45 1009.14 1008.79 1009.15 1009.02 1009.11 1008.77 1008.45 1007.93 1007.78 1006.94 1006.84 1006.88 1006.84 1007.04 1006.98 1006.87
1016.38 1016.49 1016.60 1016.79 1016.93 1016.83 1016.96 1016.46 1016.29 1016.53 1016.88 1017.21 1017.50 1017.31 1016.26 1014.47 1012.91 1013.26 1013.19 1012.74 1012.39 1012.00 1011.51 1011.17 1010.61 1010.31 1009.79 1009.66 1009.59 1009.45 1009.32 1008.97 1008.92 1008.60 1008.46 1008.41 1007.51 1007.84 1005.92 1005.93 1006.33 1006.53 1006.35 1006.23 1006.26
1015.79 1015.79 1015.97 1016.23 1016.51 1016.64 1016.72 1016.53 1016.32 1016.18 1016.53 1016.93 1017.35 1016.88 1015.49 1013.20 1013.07 1013.14 1013.22 1013.01 1012.85 1012.41 1011.62 1011.46 1011.23 1010.79 1010.12 1009.85 1010.29 1009.91 1009.27 1008.30 1008.09 1008.06 1007.94 1008.09 1007.21 1006.33 1005.89 1005.52 1005.83 1005.78 1005.79 1005.85 1005.97
1014.97 1015.20 1015.39 1015.71 1016.11 1016.37 1016.50 1016.39 1016.19 1015.98 1016.17 1016.76 1017.17 1016.62 1014.15 1013.26 1013.18 1012.97 1012.96 1012.83 1012.74 1012.55 1012.25 1011.93 1011.59 1011.00 1010.49 1010.64 1010.18 1009.46 1009.12 1007.43 1007.17 1007.71 1007.71 1007.83 1005.61 1005.18 1005.57 1005.73 1005.45 1005.45 1005.41 1005.67 1005.51
1014.02 1014.40 1014.78 1015.12 1015.54 1015.95 1016.22 1016.13 1016.06 1015.79 1016.01 1016.71 1017.05 1016.22 1013.46 1013.18 1013.00 1012.48 1012.51 1012.32 1012.10 1012.34 1012.12 1012.22 1011.59 1010.78 1010.71 1009.89 1009.21 1008.85 1007.31 1006.93 1006.70 1007.29 1007.10 1007.14 1005.41 1005.54 1006.05 1005.96 1005.80 1005.44 1004.96 1004.84 1004.90
1013.19 1013.43 1013.93 1014.46 1015.01 1015.56 1015.92 1016.05 1015.72 1015.62 1015.84 1016.81 1016.54 1016.22 1013.24 1011.76 1011.63 1011.64 1011.69 1012.23 1011.95 1011.95 1011.90 1011.72 1011.11 1010.34 1009.74 1008.88 1007.36 1006.94 1007.14 1006.55 1006.36 1006.79 1007.10 1006.28 1005.61 1005.51 1005.57 1005.56 1005.26 1004.83 1004.38 1004.17 1003.96
1012.36 1012.56 1013.03 1013.70 1014.49 1015.20 1016.03 1016.23 1015.71 1014.65 1014.14 1012.49 1012.82 1012.32 1011.00 1011.24 1011.70 1011.28 1011.35 1011.81 1011.87 1011.59 1010.97 1010.92 1010.29 1008.63 1008.19 1008.39 1007.65 1007.73 1007.10 1006.32 1006.02 1006.82 1007.46 1006.13 1005.04 1004.73 1004.91 1004.92 1004.43 1003.75 1003.45 1003.12 1002.86
1011.34 1011.44 1012.03 1012.93 1013.81 1014.71 1015.23 1014.33 1012.22 1012.23 1012.93 1012.59 1011.71 1011.74 1010.91 1011.50 1010.84 1010.59 1011.14 1010.73 1010.81 1010.12 1010.52 1010.63 1008.56 1008.29 1008.47 1008.41 1008.45 1008.09 1007.42 1006.50 1006.19 1006.53 1007.14 1005.65 1004.11 1004.20 1004.16 1003.91 1003.47 1002.73 1002.25 1002.05 1001.99
1009.98 1010.41 1011.04 1012.22 1013.21 1014.10 1013.46 1011.79 1012.34 1012.44 1012.22 1010.97 1011.02 1010.83 1010.86 1011.42 1010.23 1009.51 1010.22 1009.60 1009.42 1009.40 1008.86 1008.43 1007.47 1008.17 1008.55 1008.69 1008.54 1007.97 1007.44 1006.87 1006.64 1006.42 1006.32 1005.25 1003.52 1002.68 1002.47 1002.72 1002.18 1001.73 1001.44 1001.36 1001.45
1008.59 1009.32 1010.28 1011.62 1013.29 1012.68 1011.68 1011.79 1012.61 1013.37 1012.04 1009.39 1009.29 1009.14 1009.94 1010.14 1009.71 1009.14 1009.21 1009.01 1008.91 1007.92 1008.39 1008.33 1007.95 1008.12 1008.17 1007.98 1008.17 1007.36 1007.59 1007.82 1007.32 1006.99 1005.16 1005.74 1002.56 1001.82 1001.79 1001.53 1001.14 1000.70 1000.55 1000.78 1001.26
1007.16 1008.17 1009.16 1009.99 1010.34 1010.57 1009.64 1011.72 1012.84 1013.63 1009.81 1006.88 1006.35 1006.98 1007.77 1008.07 1007.15 1007.90 1008.60 1008.60 1007.54 1007.60 1007.92 1006.23 1007.28 1007.28 1007.66 1006.92 1007.77 1007.53 1008.00 1008.01 1007.55 1006.71 1005.92 1004.83 1004.27 1000.36 1000.96 1000.64 1000.18 999.97 999.91 1000.19 1000.82
1006.08 1007.01 1008.22 1009.47 1009.59 1008.57 1010.46 1011.70 1013.00 1012.58 1007.46 1004.67 1004.04 1004.78 1006.14 1006.71 1006.80 1006.87 1007.61 1008.06 1007.76 1007.52 1007.51 1006.61 1007.22 1007.10 1006.29 1006.98 1007.72 1007.97 1008.37 1008.30 1007.92 1006.96 1004.80 1003.23 1002.69 1000.15 999.59 999.48 999.67 999.53 999.55 1000.07 1000.68
1005.28 1006.00 1006.95 1007.71 1006.28 1008.59 1009.91 1011.37 1011.60 1008.77 1007.10 1004.37 1003.14 1003.82 1003.54 1004.25 1005.67 1005.89 1006.58 1006.51 1005.77 1006.17 1005.70 1006.19 1006.16 1006.81 1006.90 1006.65 1007.49 1007.58 1007.35 1006.87 1006.53 1005.72 1002.20 1001.73 1000.83 999.91 999.62 999.57 999.52 999.59 999.59 1000.00 1000.95
1004.54 1005.22 1005.81 1005.89 1007.33 1008.64 1009.82 1010.41 1008.53 1007.05 1006.28 1003.75 1003.18 1003.37 1002.61 1002.46 1003.78 1004.32 1005.15 1005.19 1005.32 1004.39 1003.96 1004.34 1004.88 1005.45 1005.65 1005.10 1005.42 1005.91 1005.74 1004.29 1003.85 1002.84 1001.51 1001.83 999.67 998.77 999.05 999.31 999.55 999.64 1000.07 1000.29 1001.42
1004.19 1004.75 1005.24 1005.71 1007.09 1008.09 1008.73 1007.74 1006.48 1005.21 1004.99 1004.53 1002.73 1002.21 1001.98 1001.55 1001.48 1003.01 1002.75 1002.44 1002.40 1002.88 1002.82 1002.67 1002.52 1003.45 1004.43 1004.96 1004.89 1005.22 1004.67 1004.65 1004.41 1003.36 1002.54 1000.25 998.85 998.58 999.29 999.38 999.67 999.57 999.86 1000.33 1001.12
1003.03 1003.85 1004.08 1005.15 1006.54 1007.10 1007.66 1006.61 1006.15 1005.13 1004.55 1003.90 1002.35 1001.11 1000.12 999.59 999.82 1000.62 1000.71 1000.57 1001.22 1001.77 1002.08 1001.72 1002.67 1003.23 1004.17 1004.95 1004.36 1003.74 1004.48 1005.10 1004.65 1003.19 1001.65 998.89 998.32 997.59 998.58 998.96 999.31 999.35 999.84 1000.24 1001.16
1002.75 1003.18 1002.98 1004.38 1005.88 1006.01 1005.55 1005.90 1005.70 1005.12 1004.83 1004.24 1002.92 1000.56 999.41 998.91 998.37 998.40 997.75 997.93 999.78 1000.71 1001.70 1001.69 1002.01 1003.20 1003.47 1002.70 1002.51 1003.53 1003.36 1003.26 1003.07 1002.52 1000.90 998.96 997.61 996.76 997.64 998.07 998.54 998.96 999.44 1000.04 1001.12
1002.36 1002.78 1002.87 1002.65 1003.72 1004.29 1004.48 1005.07 1004.96 1003.88 1004.72 1004.70 1003.50 1000.90 998.84 998.56 998.44 998.04 997.23 997.33 997.78 999.17 1000.30 1000.60 1001.84 1002.20 1002.27 1002.60 1002.76 1002.27 1001.75 1001.88 1001.64 1001.10 1001.59 1000.35 996.91 997.86 998.04 998.20 998.91 999.31 999.93 1000.45 1001.10
1002.78 1003.66 1002.92 1002.42 1002.47 1003.42 1004.21 1004.22 1004.30 1003.25 1003.42 1004.47 1003.30 1001.66 999.22 997.84 998.31 997.70 997.49 997.18 997.66 998.71 999.38 1000.83 1001.21 1001.40 1001.96 1002.72 1002.60 1001.08 1000.81 1001.43 1001.52 1001.25 1000.40 1000.11 997.40 997.76 998.47 998.89 999.41 999.73 1000.10 1000.85 1001.56
1003.39 1003.27 1002.74 1002.28 1002.73 1003.16 1003.30 1002.70 1002.89 1002.94 1002.76 1003.29 1003.07 1002.22 1000.09 998.16 997.64 996.95 996.90 997.20 997.86 997.86 998.73 999.64 999.61 999.27 998.43 997.85 999.60 1000.99 1000.20 1000.43 1000.86 1001.22 999.11 998.90 997.20 997.98 998.73 998.88 999.56 1000.02 1000.45 1000.82 1001.86
1002.62 1001.86 1000.85 1001.19 1001.91 1002.25 1002.39 1002.02 1002.01 1002.00 1002.23 1002.56 1002.36 1002.12 1000.83 998.57 997.14 996.13 996.51 997.23 998.05 998.27 999.38 999.46 999.02 999.21 998.49 998.46 998.85 998.79 999.16 999.39 999.88 999.38 998.87 997.35 997.40 996.55 997.34 997.84 998.47 999.30 1000.08 1000.95 1002.07
1001.72 1000.94 1000.03 999.63 1000.70 1001.23 1001.35 1000.96 1000.78 1001.28 1001.24 1001.19 1001.78 1001.24 1000.34 998.67 996.10 995.20 995.28 996.14 996.12 997.82 998.58 998.96 998.72 999.15 999.07 999.21 998.86 998.56 998.34 998.67 998.35 997.87 998.20 997.29 996.69 996.57 997.03 997.86 998.87 999.48 1000.11 1001.03 1002.07
1000.25 999.48 998.38 999.44 999.59 1000.61 1000.26 999.60 999.35 999.91 999.98 999.91 1000.21 1000.22 998.53 997.47 995.75 994.97 995.18 995.72 995.48 996.56 997.61 998.73 999.01 999.32 999.31 999.40 999.42 999.30 998.15 996.77 997.15 997.21 997.03 996.57 995.16 996.74 996.48 997.23 998.52 999.08 999.73 1000.36 1001.39
Wind_Speed
9 11 10 11 5 5 9 8 5 7 6 8 10 11 13 15 21 12 11 4 5 5 5 4 6 4 6 5 4 3 6 7 3 7 7 3 1 5 3 4 1 1 2 6 10
12 12 12 3 3 1 6 9 7 7 8 7 8 11 13 13 15 13 7 6 4 6 8 8 8 6 6 5 5 8 6 3 5 2 4 3 4 5 4 6 5 4 3 4 9
15 13 11 10 8 6 7 9 8 7 7 7 7 10 11 14 9 2 5 2 3 7 6 5 4 7 8 5 7 4 8 1 3 2 5 5 7 2 4 10 8 4 5 7 8
15 15 12 10 10 8 10 10 9 8 7 7 7 9 12 8 5 6 7 6 5 6 6 6 7 9 8 10 6 8 5 5 2 3 5 9 8 7 10 14 6 6 8 8 10
16 15 14 13 12 8 9 12 12 9 7 6 6 6 6 8 8 5 7 2 6 4 5 7 10 8 10 5 6 10 6 5 6 8 11 11 14 10 19 14 14 13 11 14 15
18 16 16 14 13 10 11 8 10 10 8 7 5 6 7 14 4 3 7 4 2 5 4 5 5 4 4 6 9 3 5 8 7 13 9 10 13 3 14 8 10 11 14 13 13
19 19 16 16 14 12 10 10 10 10 10 8 4 7 11 18 1 3 4 5 5 4 6 2 2 8 3 4 1 3 10 11 12 12 11 7 13 15 18 11 11 8 7 6 8
20 20 18 17 15 12 10 10 12 11 12 9 6 7 11 1 12 14 15 13 8 5 5 1 2 4 6 2 4 7 5 10 8 8 5 8 11 6 1 6 10 8 8 8 11
23 21 20 17 16 13 9 8 13 12 12 10 6 8 14 7 12 18 13 11 7 6 4 2 5 5 6 11 9 9 12 10 6 6 5 12 10 2 1 4 9 12 12 10 12
23 23 21 19 18 13 10 7 11 11 11 4 4 5 14 13 12 8 9 16 10 8 8 9 8 10 12 11 13 14 12 12 12 6 8 12 17 15 13 13 15 17 17 16 17
20 25 24 21 19 15 9 3 7 6 11 19 15 11 6 10 5 10 11 15 15 13 16 14 12 16 19 18 18 8 10 14 13 4 8 14 21 19 15 16 18 20 19 20 21
23 24 26 22 22 17 14 11 14 5 6 22 14 25 15 3 10 13 12 16 19 22 19 11 22 19 12 15 13 15 15 18 17 10 9 17 21 16 18 18 21 23 21 20 19
25 23 26 23 23 16 22 32 16 5 3 22 27 20 10 13 6 18 17 22 21 24 26 25 6 20 15 15 17 17 18 16 18 16 16 21 25 19 13 13 16 20 21 17 17
26 23 25 23 17 16 26 26 16 5 5 12 27 17 22 11 15 16 20 15 15 26 24 21 26 11 19 23 18 19 15 17 17 13 10 3 11 13 12 14 16 16 15 14 12
27 24 27 30 10 24 13 21 12 3 9 19 26 15 22 23 12 24 19 18 19 15 25 17 12 24 20 21 17 16 6 13 13 13 12 14 8 8 6 11 15 14 13 13 11
23 25 29 20 16 21 20 14 9 10 10 12 23 27 32 36 23 13 26 19 15 16 21 26 8 17 26 19 16 8 10 7 6 7 14 16 17 12 13 16 11 12 10 9 10
21 26 28 17 28 18 15 12 11 18 0 8 24 33 38 29 37 24 28 32 19 19 24 21 20 8 9 16 15 20 15 8 10 9 13 7 14 16 6 5 10 11 9 8 8
20 26 26 20 16 16 14 13 14 23 24 11 20 31 36 30 29 35 27 28 32 28 16 19 18 25 18 18 12 26 22 10 11 14 12 4 12 8 9 10 17 13 11 6 8
19 13 14 17 18 14 11 18 18 8 28 12 22 33 33 28 20 30 33 33 34 32 26 22 21 19 21 17 19 19 23 14 11 11 8 12 16 13 10 12 11 16 16 14 9
12 11 16 20 20 14 15 19 7 21 10 32 26 29 32 38 26 34 36 36 36 36 27 15 12 16 21 22 23 17 15 11 9 8 15 16 18 12 7 13 16 16 14 10 9
7 8 12 23 15 11 13 9 23 16 19 17 27 23 29 36 31 37 34 22 37 35 31 21 15 10 18 27 22 18 16 13 12 14 13 18 14 3 9 11 12 13 11 8 10
4 5 7 16 13 8 15 11 9 15 22 9 11 22 25 30 33 32 32 30 35 30 36 31 14 14 23 14 22 27 27 28 11 15 13 16 20 5 7 7 6 4 3 6 8
6 1 4 12 11 7 14 10 12 18 18 8 8 15 18 26 28 26 29 28 23 31 28 24 15 16 18 14 16 28 30 22 24 8 19 14 14 9 9 8 6 4 4 6 8
3 5 2 6 5 8 16 17 24 19 19 18 6 19 25 24 28 27 24 16 18 34 16 24 14 25 22 31 15 23 29 30 23 15 24 19 30 16 12 9 6 7 6 9 12
2 4 6 10 11 16 22 14 19 13 20 20 11 26 25 19 31 19 26 17 21 28 15 17 20 24 30 27 14 25 29 30 30 30 24 28 29 28 22 17 16 10 9 11 13
4 4 2 8 17 20 17 15 25 24 15 18 19 25 29 26 26 22 27 24 18 21 26 19 8 19 24 27 18 19 21 27 33 35 30 31 27 23 22 8 8 11 12 15 16
5 6 6 11 12 15 15 27 30 28 21 25 28 23 30 32 24 21 18 17 12 21 26 21 10 12 15 17 18 9 21 28 24 31 27 27 30 23 23 19 15 17 18 19 18
Wind_Direction
266 287 295 302 213 269 264 251 253 281 294 311 324 329 327 327 311 286 289 14 319 333 295 242 203 192 206 189 217 250 242 229 201 201 128 153 257 79 322 250 327 156 336 79 135
268 271 282 263 317 147 254 252 233 258 281 301 319 325 325 325 308 286 31 324 281 299 251 227 204 194 197 196 191 236 253 229 30 90 141 234 299 17 259 217 205 186 163 147 170
282 260 269 272 275 274 264 225 231 230 267 288 310 321 320 312 282 90 29 334 288 274 269 262 235 229 229 212 184 169 257 34 143 242 269 281 271 131 254 246 244 244 211 187 197
267 267 255 257 270 281 265 222 213 221 242 273 303 324 314 289 267 82 352 319 283 277 248 231 219 214 231 218 181 234 232 247 123 193 270 268 311 257 253 264 293 275 283 270 228
262 257 247 249 258 264 296 229 193 209 209 253 285 322 297 237 247 68 320 274 264 253 234 232 231 227 227 224 197 232 228 229 243 258 263 280 268 280 267 256 249 263 255 261 258
260 251 242 239 245 256 274 241 196 193 185 225 260 291 243 248 356 320 349 296 320 279 223 222 272 252 259 242 242 111 241 254 254 256 248 258 271 230 260 255 245 241 252 246 249
248 252 243 229 235 243 245 273 223 193 176 192 217 261 245 238 264 299 319 328 317 316 266 213 260 234 164 207 199 238 264 246 238 248 246 246 243 234 260 268 261 232 219 219 221
248 241 240 226 222 233 236 270 234 198 165 171 189 238 253 258 260 267 261 270 257 268 268 227 224 254 244 102 194 242 249 255 128 196 184 221 270 195 332 244 242 249 239 236 246
248 241 231 222 213 218 228 264 246 190 151 149 186 233 251 120 225 240 237 245 225 226 193 208 223 240 191 225 231 205 256 217 232 216 215 221 278 165 60 264 263 261 252 247 257
248 240 229 220 208 204 215 261 258 141 137 148 308 193 232 223 217 220 224 216 215 203 192 204 217 220 220 210 226 235 224 226 247 138 215 236 253 263 267 270 266 261 264 262 261
267 237 228 218 204 187 186 244 211 196 187 189 175 217 67 234 157 208 184 190 211 215 213 201 218 216 214 220 249 283 261 265 267 168 281 261 269 270 268 261 257 262 261 263 265
256 252 219 215 201 175 205 212 232 74 202 224 211 212 231 83 207 205 186 188 192 211 209 193 226 228 234 227 239 236 256 262 279 280 252 269 273 274 262 253 257 261 258 254 256
244 248 211 207 200 183 211 225 233 359 265 200 213 201 203 219 231 193 192 203 200 208 208 220 224 211 216 214 224 231 240 252 264 294 274 264 271 257 245 253 251 248 257 259 255
231 235 199 196 198 197 222 222 223 283 235 214 197 215 199 172 224 219 199 186 209 216 209 234 239 197 214 230 218 239 221 254 263 278 271 13 289 277 263 246 247 247 240 241 235
217 219 191 189 178 201 188 207 205 242 244 176 184 177 182 196 129 202 202 205 210 201 199 208 208 212 221 219 214 245 200 226 240 256 284 233 252 284 188 238 245 238 244 246 234
207 210 188 192 209 215 202 161 147 227 234 207 154 177 180 201 207 159 188 213 224 203 212 229 201 217 227 221 201 148 158 173 210 255 252 247 238 260 244 215 242 263 261 223 216
212 202 188 184 210 188 182 174 200 223 105 215 173 175 184 186 199 188 189 196 189 192 207 209 209 206 211 198 188 194 183 203 219 212 251 234 244 239 267 208 238 240 260 209 201
218 194 198 202 194 172 167 194 211 210 208 195 188 186 197 175 198 192 191 199 209 211 206 206 204 203 187 194 188 198 192 204 224 230 258 171 241 257 226 246 232 242 250 236 210
205 197 197 199 179 174 191 206 205 162 221 245 190 190 202 188 175 189 198 201 201 203 215 202 230 182 192 197 172 193 215 242 277 262 263 246 241 232 199 226 232 236 241 231 235
191 195 200 182 173 169 192 211 208 241 224 209 209 198 198 189 189 189 194 204 205 206 207 188 212 193 190 202 217 192 186 193 209 224 238 243 243 257 197 222 225 234 234 230 232
173 199 185 171 163 190 197 202 223 211 249 235 227 199 211 194 196 192 191 191 202 196 205 214 211 155 176 203 193 194 200 214 222 227 238 266 264 265 223 221 221 225 228 228 224
182 183 200 161 186 183 197 183 214 233 207 248 271 251 212 198 202 191 208 204 189 191 196 205 207 199 198 212 223 212 213 203 198 201 233 258 264 115 129 158 173 187 223 230 222
134 165 253 163 200 167 193 169 223 224 221 209 241 239 238 203 200 197 214 201 184 188 184 182 206 204 210 195 213 222 220 221 226 258 219 213 256 184 173 178 184 247 210 201 205
230 142 179 193 172 181 186 202 219 220 232 208 264 243 256 211 202 198 212 187 195 193 170 171 205 209 202 213 194 205 217 221 218 219 236 226 245 218 179 185 191 224 226 191 195
211 223 175 176 184 195 205 196 209 220 214 203 236 236 262 212 200 208 204 177 195 199 181 181 205 206 226 219 204 207 214 212 216 220 221 237 238 246 251 248 270 257 230 200 197
196 199 200 172 190 189 199 211 225 218 203 216 218 223 235 246 202 196 191 187 179 190 189 194 205 204 226 229 225 234 217 220 219 226 230 242 247 247 251 252 236 215 207 205 204
188 215 175 161 171 176 195 216 225 224 224 218 208 231 220 230 232 223 199 192 174 177 187 190 196 186 224 210 214 232 226 218 220 224 230 233 243 246 256 255 235 236 214 211 202